Hourly Weather Roundup
Issued by NWS Central Illinois

Home | Current Version | Previous Version | Text Only | Print | Product List | Glossary On
Versions: 1 2 3 4 5 6 7 8 9 10 11 12 13 14 15 16 17 18 19 20 21 22 23 24 25 26 27 28 29 30 31 32 33 34 35 36 37 38 39 40 41 42 43 44 45 46 47 48 49 50
000
NZUS43 KILX 010010
HWRILX

AREA WEATHER ROUNDUP
NATIONAL WEATHER SERVICE, LINCOLN IL
700 PM CDT FRI JUL 31 2015


CITY           SKY/WX    TMP DP  RH WIND       PRES   REMARKS
BLOOMINGTON    SUNNY     85  60  42 W12       30.01F HX  85
6HR MIN TEMP:  85; 6HR MAX TEMP:  89;

CHAMPAIGN      SUNNY     82  66  58 W3        30.00S HX  84
6HR MIN TEMP:  82; 6HR MAX TEMP:  87;

DANVILLE       SUNNY     79  64  60 W5        29.95S HX  81
6HR MIN TEMP:  79; 6HR MAX TEMP:  86;

DECATUR        SUNNY     86  61  42 N6        30.00F HX  86
6HR MIN TEMP:  86; 6HR MAX TEMP:  91;

EFFINGHAM      SUNNY     86  62  45 W5        30.01F HX  86
FLORA          SUNNY     86  64  47 NW5       30.00F HX  87
6HR MIN TEMP:  86; 6HR MAX TEMP:  90;

GALESBURG      SUNNY     82  64  56 W6        30.01S HX  83
JACKSONVILLE   SUNNY     86  71  59 W3        30.01F HX  91
6HR MIN TEMP:  86; 6HR MAX TEMP:  90;

LACON          SUNNY     82  60  47 NW7       29.98S HX  82
6HR MIN TEMP:  82; 6HR MAX TEMP:  86;

LAWRENCEVILLE  SUNNY     86  66  51 NW6       29.99F HX  88
6HR MIN TEMP:  86; 6HR MAX TEMP:  91;

LITCHFIELD     SUNNY     83  67  59 W5        30.02S HX  85
$$


CITY           SKY/WX    TMP DP  RH WIND       PRES   REMARKS
LINCOLN        SUNNY     86  62  43 CALM      29.99S HX  86
6HR MIN TEMP:  86; 6HR MAX TEMP:  92;

MACOMB         SUNNY     83  65  53 NW3       30.03F HX  85
MATTOON        SUNNY     86  60  41 N5        29.99F HX  86
6HR MIN TEMP:  86; 6HR MAX TEMP:  91;

MT CARMEL AP   SUNNY     86  70  58 NW3       29.99F HX  90
OLNEY-NOBLE AP SUNNY     82  68  61 W3        30.00S HX  85
PARIS          SUNNY     82  61  48 NW6       30.00S HX  83
6HR MIN TEMP:  82; 6HR MAX TEMP:  88;

PEORIA         SUNNY     86  61  42 W5        30.00S HX  86
6HR MIN TEMP:  86; 6HR MAX TEMP:  90;

PONTIAC        SUNNY     81  65  58 NW6       29.98F HX  82
RANTOUL        SUNNY    N/A N/A N/A W10       29.99S
ROBINSON       SUNNY     84  68  59 NW3       30.00S HX  87
6HR MIN TEMP:  84; 6HR MAX TEMP:  87;

SPRINGFIELD    SUNNY     86  70  58 W6        30.00F HX  90
6HR MIN TEMP:  85; 6HR MAX TEMP:  91;

TAYLORVILLE    MOSUNNY   82  70  65 W5        30.00F HX  86
$$

...REGIONAL REPORTS...


CITY           SKY/WX    TMP DP  RH WIND       PRES   REMARKS
CHICAGO O`HARE SUNNY     82  48  30 NW17      29.93S HX  81
KANKAKEE       SUNNY     82  56  40 W9G17     29.96S HX  82
MOLINE         SUNNY     83  54  36 NW13G23   30.00S HX  82
MOUNT STERLING NOT AVBL
MOUNT VERNON   SUNNY     88  64  45 W5        30.02S HX  89
PITTSFIELD     SUNNY     84  67  57 W3        30.03F HX  86
QUINCY         SUNNY     83  66  56 W5        30.02F HX  85
ROCKFORD       SUNNY     81  47  30 NW15      29.97S HX  80
$$


CITY           SKY/WX    TMP DP  RH WIND       PRES   REMARKS
BURLINGTON     SUNNY     84  64  50 N5        30.02S HX  85
CEDAR RAPIDS   SUNNY     79  62  56 NW7       30.03S HX  80
DES MOINES     MOSUNNY   86  59  39 E5        30.03S HX  85
KIRKSVILLE     PTSUNNY   83  72  69 CALM      30.05S HX  88
OTTUMWA        SUNNY     83  68  60 N7        30.02S HX  86
ST LOUIS       MOSUNNY   89  62  40 N7        30.01F HX  89
$$


CITY           SKY/WX    TMP DP  RH WIND       PRES   REMARKS
TERRE HAUTE    SUNNY     84  56  38 NW6       29.98F HX  83
EVANSVILLE     MOSUNNY   87  66  49 NW3       30.00F HX  89
INDIANAPOLIS   PTCLDY    83  59  44 W16       29.96S HX  83
LAFAYETTE      SUNNY     80  60  50 W8        29.95S HX  81
MADISON        MOSUNNY   78  48  34 NW10G22   29.95S
MILWAUKEE      MOSUNNY   81  47  30 W18       29.92S HX  80
$$





USA.gov is the U.S. government's official web portal to all federal, state and local government web resources and services.